COSMOS 1844

Last updated on Mon Feb 16 2026 00:02:14 GMT+0000 (Coordinated Universal Time)

1 17973U 87041A 26046.54948636 .00000425 00000+0 24566-3 0 9996 2 17973 70.8979 80.8771 0029018 53.2464 307.1316 14.14547295 456
UTC large
Height (km)
Speed (km/s)
/
Latitude / Longitude
Inclination (degrees)
Orbital Period (minutes)
Azimuth
Elevation
Range (km)
Doppler Factor

Next 0 passes for location: London (51.5072 / 0.1276)

Sorry there are no passes over London.